This demonstration page uses our WeatherBlox Daily Observations layout. Learn more.

Left ArrowRight Arrow

40.92945, -100.16068

Hourly Observations for April 26, 2021

Temp ( °F °C ) Dew Point ( °F °C ) Humidity (%) Winds ( mph kmh ) Pressure ( in mb ) Visibility ( mi km ) Precip ( " mm )
12:15 am 00:15 Clear 65 18.2 52 11.2 64 64 SSE 17 28 29.48 998 10 16 N/A
12:35 am 00:35 Clear 64 17.8 52 11.2 65 65 SE 16 26 29.46 998 10 16 N/A
12:55 am 00:55 Clear 63 17.3 52 11.2 68 68 SE 17 28 29.46 998 10 16 N/A
1:15 am 01:15 Clear 62 16.6 52 11.2 71 71 SE 16 26 29.46 998 10 16 N/A
1:35 am 01:35 Clear 62 16.4 53 11.4 72 72 SE 16 26 29.45 997 10 16 N/A
1:55 am 01:55 Clear 61 16.1 53 11.5 74 74 SSE 16 26 29.46 998 10 16 N/A
2:15 am 02:15 Clear 60 15.8 53 11.6 76 76 SSE 16 26 29.44 997 10 16 N/A
2:35 am 02:35 Clear 60 15.3 53 11.6 79 79 SSE 15 24 29.43 997 10 16 N/A
2:55 am 02:55 Clear 59 15.2 53 11.7 80 80 SSE 17 28 29.42 996 10 16 N/A
3:15 am 03:15 Clear 59 15.2 53 11.7 80 80 SSE 15 24 29.40 996 10 16 N/A
3:35 am 03:35 Clear 59 15 53 11.8 81 81 SSE 15 24 29.40 995 10 16 N/A
3:55 am 03:55 Clear 58 14.5 53 11.7 83 83 S 10 17 29.41 996 10 16 N/A
4:15 am 04:15 Clear 58 14.3 53 11.5 83 83 SSE 9 15 29.40 996 10 16 N/A
4:35 am 04:35 Clear 56 13.3 51 10.8 85 85 E 5 7 29.42 996 10 16 N/A
4:55 am 04:55 Clear 56 13.5 52 11.2 86 86 SSE 3 6 29.42 996 10 16 N/A
5:15 am 05:15 Clear 55 12.6 51 10.7 88 88 S 6 9 29.43 997 10 16 N/A
5:35 am 05:35 Clear 53 11.5 50 10.2 92 92 S 3 6 29.44 997 10 16 N/A
5:55 am 05:55 Clear 50 10.2 49 9.3 94 94 N N/A 29.45 997 10 16 N/A
6:15 am 06:15 Clear 50 9.8 48 9.1 95 95 N N/A 29.45 997 10 16 N/A
6:35 am 06:35 Mostly Cloudy with Mist and Fog 45 7.2 44 6.5 95 95 WNW 6 9 29.48 998 2 3 N/A
6:55 am 06:55 Sunny 46 7.5 45 7 97 97 WSW 5 7 29.48 998 7 11 N/A
7:15 am 07:15 Sunny 46 7.9 45 7.3 96 96 W 7 11 29.48 998 10 16 N/A
7:35 am 07:35 Sunny 47 8.4 46 7.9 97 97 N N/A 29.49 998 7 11 N/A
7:55 am 07:55 Sunny 52 11.1 49 9.5 90 90 N N/A 29.47 998 10 16 N/A
8:15 am 08:15 Sunny 55 12.6 50 9.9 84 84 N N/A 29.46 998 10 16 N/A
8:35 am 08:35 Sunny 56 13.6 50 10 79 79 SW 5 7 29.46 998 10 16 N/A
8:55 am 08:55 Sunny 59 14.8 51 10.6 76 76 W 7 11 29.46 998 10 16 N/A
9:15 am 09:15 Sunny 60 15.6 51 10.5 72 72 W 8 13 29.45 997 10 16 N/A
9:35 am 09:35 Sunny 61 16.3 51 10.8 70 70 WNW 8 13 29.46 997 10 16 N/A
9:55 am 09:55 Sunny 63 17.1 52 10.9 67 67 W 7 11 29.47 998 10 16 N/A
10:15 am 10:15 Sunny 65 18.1 52 10.9 63 63 W 8 13 29.47 998 10 16 N/A
10:35 am 10:35 Sunny 66 18.9 52 10.9 60 60 W 7 11 29.46 998 10 16 N/A
10:55 am 10:55 Sunny 69 20.5 52 10.9 54 54 WNW 6 9 29.44 997 10 16 N/A
11:15 am 11:15 Sunny 70 21.1 50 10.1 50 50 NW 5 7 29.44 997 10 16 N/A
11:35 am 11:35 Sunny 72 22.2 50 9.9 46 46 WNW 6 9 29.44 997 10 16 N/A
11:55 am 11:55 Sunny 73 22.8 49 9.4 43 43 N N/A 29.43 997 10 16 N/A
12:15 pm 12:15 Sunny 74 23.5 50 10.2 43 43 ESE 5 7 29.40 996 10 16 N/A
12:35 pm 12:35 Sunny 75 24.1 50 10.2 42 42 E 3 6 29.40 996 10 16 N/A
12:55 pm 12:55 Sunny 77 25 50 10 39 39 ENE 5 7 29.39 995 10 16 N/A
1:15 pm 13:15 Sunny 79 25.9 49 9.6 36 36 SSW 5 7 29.38 995 10 16 N/A
1:35 pm 13:35 Sunny 80 26.4 47 8.5 32 32 SE 3 6 29.38 995 10 16 N/A
1:55 pm 13:55 Sunny 81 27 46 8 30 30 N N/A 29.37 994 10 16 N/A
2:15 pm 14:15 Sunny 81 27.2 46 7.6 29 29 N N/A 29.35 994 10 16 N/A
2:35 pm 14:35 Sunny 83 28.2 45 7.2 27 27 N N/A 29.35 994 10 16 N/A
2:55 pm 14:55 Sunny 84 28.8 45 7.1 25 25 N N/A 29.33 993 10 16 N/A
3:15 pm 15:15 Sunny 84 29.1 44 6.6 24 24 ENE 5 7 29.33 993 10 16 N/A
3:35 pm 15:35 Sunny 85 29.4 43 6.3 23 23 N N/A 29.32 993 10 16 N/A
3:55 pm 15:55 Sunny 85 29.5 43 6.1 23 23 ESE 5 7 29.32 993 10 16 N/A
4:15 pm 16:15 Sunny 87 30.4 43 6.1 22 22 E 5 7 29.30 992 10 16 N/A
4:35 pm 16:35 Sunny 86 30.1 42 5.4 21 21 N N/A 29.30 992 10 16 N/A
4:55 pm 16:55 Sunny 87 30.6 38 3.4 18 18 SSE 5 7 29.29 992 10 16 N/A
5:15 pm 17:15 Sunny 88 31.1 30 -1.2 12 12 N N/A 29.27 991 10 16 N/A
5:35 pm 17:35 Sunny 88 31 31 -0.5 13 13 ENE 6 9 29.27 991 10 16 N/A
5:55 pm 17:55 Sunny 88 31 29 -1.6 12 12 N N/A 29.26 991 10 16 N/A
6:15 pm 18:15 Sunny 88 31 30 -0.9 13 13 NNE 8 13 29.25 991 10 16 N/A
6:35 pm 18:35 Sunny 86 30 43 6 22 22 NE 9 15 29.26 991 10 16 N/A
6:55 pm 18:55 Sunny 83 28.3 46 8 28 28 NE 13 20 29.28 991 10 16 N/A
7:15 pm 19:15 Sunny 82 27.5 49 9.4 32 32 NE 13 20 29.28 992 10 16 N/A
7:35 pm 19:35 Sunny 79 26.1 49 9.6 35 35 NE 13 20 29.29 992 10 16 N/A
7:55 pm 19:55 Sunny 77 25.1 49 9.3 37 37 NE 13 20 29.30 992 10 16 N/A
8:15 pm 20:15 Sunny 76 24.3 49 9.2 38 38 NE 13 20 29.32 993 10 16 N/A
8:35 pm 20:35 Clear 74 23.1 49 9.4 42 42 NE 13 20 29.33 993 10 16 N/A
8:55 pm 20:55 Clear 73 22.5 51 10.6 47 47 NE 12 19 29.33 993 10 16 N/A
9:15 pm 21:15 Clear 73 22.6 52 11.3 49 49 NE 16 26 29.33 993 10 16 N/A
9:35 pm 21:35 Clear 73 22.9 52 11.2 48 48 ENE 18 30 29.34 994 10 16 N/A
9:55 pm 21:55 Clear 72 22.2 52 11 49 49 ENE 17 28 29.35 994 10 16 N/A
10:15 pm 22:15 Clear 71 21.4 52 11.2 52 52 ENE 15 24 29.37 995 10 16 N/A
10:35 pm 22:35 Clear 69 20.7 53 11.6 56 56 ENE 13 20 29.38 995 10 16 N/A
10:55 pm 22:55 Clear 68 19.9 52 11 57 57 E 9 15 29.38 995 10 16 N/A
11:15 pm 23:15 Clear 70 21.3 50 10.1 49 49 E 8 13 29.37 995 10 16 N/A
11:35 pm 23:35 Clear 72 22.3 50 10 46 46 SSE 9 15 29.35 994 10 16 N/A
11:55 pm 23:55 Clear 71 21.4 51 10.4 50 50 SE 6 9 29.36 994 10 16 N/A

Powered by AerisWeather